Location: Plainartige
(45.6866°N, 1.7993°E)
Time: 02:40:02
(UTC+00:00)

POLYITAN 1 - Visible Passes

Search period start: 28 June 2022 00:00
Search period end: 08 July 2022 00:00
Orbit: 585 x 606 km, 98.0° (Epoch: 27 June)

Date Brightness Start Highest point End Pass type
(mag) Time Alt. Az. Time Alt. Az. Time Alt. Az.
28 Jun ? 00:50:46 10° NE 00:54:07 22° E 00:55:49 18° SE visible
28 Jun ? 02:25:57 10° N 02:29:50 36° WNW 02:32:29 18° SW visible
29 Jun ? 01:00:25 10° NE 01:04:04 28° E 01:05:48 21° SE visible
29 Jun ? 02:36:00 10° N 02:39:39 29° WNW 02:42:28 15° WSW visible
30 Jun ? 01:10:07 10° NNE 01:14:01 35° E 01:15:47 24° SE visible
30 Jun ? 02:46:05 10° NNW 02:49:28 24° WNW 02:52:27 12° WSW visible
01 Jul ? 01:19:52 10° NNE 01:23:57 44° E 01:25:46 28° SSE visible
01 Jul ? 02:56:13 10° NNW 02:59:16 19° WNW 03:02:18 10° WSW visible
02 Jul ? 01:29:40 10° NNE 01:33:51 57° E 01:35:44 30° SSE visible
02 Jul ? 03:06:27 10° NNW 03:09:03 16° WNW 03:11:37 10° W visible
03 Jul ? 01:39:30 10° NNE 01:43:45 73° ESE 01:45:42 31° S visible
03 Jul ? 03:16:51 10° NNW 03:18:48 13° WNW 03:20:45 10° W visible
04 Jul ? 01:49:22 10° NNE 01:53:37 88° WNW 01:55:40 30° SSW visible
04 Jul ? 03:27:42 10° NW 03:28:32 11° WNW 03:29:23 10° WNW visible
05 Jul ? 00:25:46 10° ENE 00:27:24 12° E 00:28:57 10° ESE visible
05 Jul ? 01:59:15 10° N 02:03:29 70° WNW 02:05:37 28° SSW visible
06 Jul ? 00:34:53 10° NE 00:37:23 15° E 00:38:54 13° ESE visible
06 Jul ? 02:09:10 10° N 02:13:19 55° WNW 02:15:34 25° SW visible
07 Jul ? 00:44:17 10° NE 00:47:20 19° E 00:48:51 16° ESE visible
07 Jul ? 02:19:07 10° N 02:23:09 43° WNW 02:25:31 22° SW visible
